Tracking 31027 objects as of 19-Jul-2025
HD Live streaming from Space Station
objects crossing your sky now

STARLINK-5420

Track STARLINK-5420 now!
10-day predictions
STARLINK-5420 is classified as:


NORAD ID: 54798
Int'l Code: 2022-175AS
Perigee: 546.0 km
Apogee: 547.7 km
Inclination: 53.2 °
Period: 95.4 minutes
Semi major axis: 6917 km
RCS: Unknown
Launch date: December 17, 2022
Source: United States (US)
Launch site: AIR FORCE EASTERN TEST RANGE (AFETR)
Your satellite tracking list
STARLINK-3349
Track 1 satellite(s)




NASA's NSSDC Master Catalog

Two Line Element Set (TLE):
1 54798U 22175AS  25199.79704775  .00000925  00000-0  76185-4 0  9999
2 54798  53.2191 348.8710 0001214  85.9767 274.1364 15.08838506142803
Source of the keplerian elements: AFSPC